Regional Weather Roundup
Issued by NWS

Home | Current Version | Previous Version | Text Only | Print | Product List | Glossary On
Versions: 1 2 3 4 5 6 7 8 9 10 11 12 13 14 15 16 17 18 19 20 21 22 23 24 25 26 27 28 29 30 31 32 33 34 35 36 37 38 39 40 41 42 43 44 45 46 47 48 49 50
000
ASHW40 PHFO 071510
RWRHI

WEATHER ROUNDUP FOR HAWAII
NATIONAL WEATHER SERVICE HONOLULU HI
500 AM HST TUE JUL 07 2015

THIS IS AN AUTOMATED REPORT THAT HAS NOT BEEN QUALITY CONTROLLED.

NOTE..."FAIR" INDICATES FEW OR NO CLOUDS BELOW 12,000 FEET WITH NO
SIGNIFICANT WEATHER AND/OR OBSTRUCTIONS TO VISIBILITY.

* - THESE SITES REPORT LIMITED FIELDS

HIZ001>004-071600-
KAUAI-NIIHAU-

CITY           SKY/WX    TMP DP  RH WIND       PRES   REMARKS
LIHUE APT      PTCLDY    77  68  73 NE14      30.02R
PORT ALLEN*    NOT AVBL
POIPU*           N/A     77 N/A N/A NE8G16      N/A
PRINCEVILLE*     N/A     73 N/A N/A MISG        N/A
KOKOLE POINT*  NOT AVBL
MOLOAA DAIRY*  NOT AVBL
WAIMEA HTS*    NOT AVBL
PUU OPAE*      NOT AVBL
PUU LUA*       NOT AVBL
MAKAHA RIDGE*  NOT AVBL
$$

HIZ005>011-071600-
OAHU-

CITY           SKY/WX    TMP DP  RH WIND       PRES   REMARKS
HONOLULU       MOCLDY    78  69  73 NE12      29.97S
KALAELOA       PTCLDY    75  67  76 CALM      29.99R
KANEOHE MCB    MOCLDY    77  70  79 E10       29.96S
WHEELER FIELD  FAIR      74  66  77 E6        29.99R
BELLOWS*       NOT AVBL
KAHUKU*        NOT AVBL
WHEELER*       NOT AVBL
WAIANAE HARBOR NOT AVBL
DILLINGHAM*      N/A     73  68  83 MISG        N/A
KAHUKU TRN*      N/A     73  66  78 E9G18       N/A
KAWAILOA*        N/A     72  66  83 NE10G18     N/A
KII*             N/A     79  70  73 NE16G22     N/A
MAKUA RANGE*     N/A     73  64  73 E5          N/A
OAHU FOREST NW NOT AVBL
SCHOFIELD BRK*   N/A     70  64  83 CALM        N/A
SCHOFIELD S*   NOT AVBL
WAIANAE VLY*   NOT AVBL
KUAOKALA*      NOT AVBL
HONOULIUULI*   NOT AVBL
MOKUOLOE IS*   NOT AVBL
PALEHUA*       NOT AVBL
WAIAWA PHB*    NOT AVBL
$$

HIZ012>013-071600-
MOLOKAI-

CITY           SKY/WX    TMP DP  RH WIND       PRES   REMARKS
MOLOKAI AIRPT  PTCLDY    75  69  81 NE7       29.99R
KALAUPAPA      NOT AVBL
MAKAPULAPAI*   NOT AVBL
MOLOKAI 1*     NOT AVBL
PUU ALII*      NOT AVBL
$$

HIZ016-071600-
KAHOOLAWE-

CITY           SKY/WX    TMP DP  RH WIND       PRES   REMARKS
KAHOOLAWE*     NOT AVBL
HAKIOAWA*      NOT AVBL
HONOKANAIA*      N/A     75  65  70 NE8       29.98R
KANELOA*         N/A     75  64  69 NE8G22    30.02S
KEALIALALO*    NOT AVBL
LUA MAKIKA*    NOT AVBL
$$

HIZ014>015-071600-
LANAI-

CITY           SKY/WX    TMP DP  RH WIND       PRES   REMARKS
LANAI CITY     FAIR      66  63  90 E8        30.02R
LANAI 1*       NOT AVBL
$$

HIZ017>028-071600-
MAUI-

CITY           SKY/WX    TMP DP  RH WIND       PRES   REMARKS
KAHULUI        CLEAR     75  67  76 NE7       29.97S
KAPALUA-W MAUI NOT AVBL
HANA AIRPORT   CLOUDY    72  72 100 CALM      30.00F
HANA*          NOT AVBL
HALEAKALA SUMM   N/A     46  14  27 E22         N/A
MAALAEA BAY*   NOT AVBL
HALEAKALA*     NOT AVBL
KAUPO GAP*     NOT AVBL
KULA 1*          N/A    N/A N/A N/A NE3         N/A
$$

HIZ023>026-071600-
BIG ISLAND OF HAWAII COAST AND LOWER SLOPES-

CITY           SKY/WX    TMP DP  RH WIND       PRES   REMARKS
KAILUA KONA    CLEAR     76  68  76 E6        29.92S
HILO           CLOUDY    71  70  96 W6        29.98S
HONOKAA*       NOT AVBL
KAWAIHAE MWT*  NOT AVBL
KAWAIHAE*        N/A     79 N/A N/A N6          N/A
SOUTH POINT*   NOT AVBL
UPOLU AIRPORT* NOT AVBL
KAMUELA*       PTSUNNY   64  61  88 NE13      30.07R
HAKALAU*         N/A     51  47  86 SW5         N/A
KALOKO-HONOKO* NOT AVBL
PALI 2*          N/A     66  57  72 N12         N/A
KEALAKOMO*       N/A     64  48  55 VRB16G26    N/A
KAUPULEHU*     NOT AVBL
KAPAPALA*        N/A     62  58  85 N3          N/A
LOWER KAHUKU*  NOT AVBL
PUHE CS*       NOT AVBL
PUHO CS*       NOT AVBL
PTA KEAMUKU*     N/A     61  54  77 CALM        N/A
WAIKOLOA*      NOT AVBL
$$

HIZ027>028-071600-
BIG ISLAND OF HAWAII INTERIOR AND SUMMMITS-

CITY           SKY/WX    TMP DP  RH WIND       PRES   REMARKS
BRADSHAW FIELD CLOUDY    60  46  59 SE10G23   30.26S
MK VISITOR CEN   N/A      0   0 100 MISG        N/A
MAUNA KEA*       N/A     39  10  30 SE1         N/A
MAUNA LOA*       N/A     41  14  33 MISG        N/A
MAUNA LOA 1*   NOT AVBL
PTA KIPUKA*      N/A     52  48  87 E6          N/A
PTA RANGE 17*    N/A     55  48  76 S7G18       N/A
PTA WEST*        N/A     61  54  77 S8G14       N/A
NENE CABIN*    NOT AVBL
AHUMOA*        NOT AVBL
PTA PORTABLE*  NOT AVBL
PUU MALI*        N/A     54  34  47 SE3G9       N/A
$$

HIC003-071600-
NORTHWEST ISLANDS-

CITY           SKY/WX    TMP DP  RH WIND       PRES   REMARKS
MIDWAY ISLAND  PTCLDY    75  70  83 E10       30.13S
MIDWAY NOS*    NOT AVBL
FRENCH FRIGATE NOT AVBL
$$

PHZ110>124-180-071600-
BUOY REPORTS

STATION/POSITION TIME  TEMP    WIND        PRES    WAVE   SWELL
                       AIR SEA DIR/SP/G            HT/PER HT/DIR
                 (UTC) (F)     (DEG/KT/KT) (MB)    (FT/S) (FT/D)
BUOY 51001       NOT AVBL
BUOY 51101       1500   79 80   90/ 14/ 17 1017.0R   6/ 9   5/360
BUOY 51100       NOT AVBL
BUOY 51002       1500   80 81   70/ 17/ 21 1012.1S   7/17   5/170
BUOY 51003       1400   80 81   90/ 12/ 14 1013.9S   7/ 6   5
BUOY 51004       1450   80 80   70/ 16/ 19 1011.9S   8/15   7/170
BARBERS PT BUOY  NOT AVBL
WAIMEA BAY BUOY  1500      79                N/A     4/10   2/310
KAILUA BAY BUOY  1500      79                N/A     6/ 6   2/130
LANAI BUOY       NOT AVBL
BARBERS PT 2     1500      80                N/A     5/14   3/190
PAUWELA MAUI     1500      79                N/A     5/ 6   2/ 30
HILO             1500      80                N/A     5/ 8   2/120
KANEOHE BAY BUOY 1500      78                N/A     5/ 6
HANALEI KAUAI    1500      80                N/A     5/ 9   2/350
KAHULUI HARBOR   1500   77 81   20/  8/ 10 1014.7R
HONOLULU HARBOR  1500   79 80   60/  5/  9 1015.0S
KILO NALU        NOT AVBL
HILO HARBOR      1400   71 79  250/  7/  7 1014.8R
MOKUOLOE         1400      82              1015.3R
NAWILIWILI       1500   78 81   50/ 11/ 15 1015.9S
WHOTS BUOY       NOT AVBL
BUOY 51028       NOT AVBL
$$

......................KEY........................................
  SKY/WX - SKY CONDITIONS/PRESENT WEATHER
  TMP    - TEMPERATURE IN FAHRENHEIT
  DWPT   - DEWPOINT IN FAHRENHEIT
  RH     - RELATIVE HUMIDITY IN PERCENT
  WIND   - DIRECTION AND SPEED /MPH FOR ISLANDS...KTS FOR BUOYS/
  PRES   - MEAN SEA LEVEL PRESSURE IN INCHES OF HG
  VSB    - VISIBILITY IN MILES
  HX     - HEAT INDEX
  WCI    - WIND CHILL INDEX
  VRB    - VARIABLE WIND DIRECTION
  N/A    - NOT AVAILABLE



USA.gov is the U.S. government's official web portal to all federal, state and local government web resources and services.